User: anonymous   Login
Location: St. Louis
(38.6270°N, 90.1994°W)
Time: 13:27:29
(UTC-05:00)
Language:

deb Kosmos-468 - Orbit

View from above orbital plane
View from above orbital plane
View from above satellite
View from above satellite

Ground track
Ground track

The orbit data is extracted from the following two-line orbital elements,

1 08757U 75094D   22224.82542378  .00004230  00000-0  40259-3 0  9995
2 08757  74.0264 166.9652 0002317 239.4717 120.6238 14.93757038691031
Epoch (UTC): 12 August 2022 19:48:36
Eccentricity: 0.0002317
inclination: 74.0264°
perigee height: 584 km
apogee height: 588 km
right ascension of ascending node: 166.9652°
argument of perigee: 239.4717°
revolutions per day: 14.93757038
mean anomaly at epoch: 120.6238°
orbit number at epoch: 69103

The dashed part of the orbit path shows where the satellite is in the earth's shadow,  

DLR